Time,TemperatureF,DewpointF,PressureIn,WindDirection,WindDirectionDegrees,WindSpeedMPH,WindSpeedGustMPH,Humidity,HourlyPrecipIn,Conditions,Clouds,dailyrainin,SoftwareType,DateUTC
2013-02-02 00:01:00,25.5,15.8,30.32,South,191,7.0,10.0,66,0.00,,,0.00,WUHU216DAVISVP2,2013-02-02 06:01:00,
2013-02-02 00:06:00,25.5,15.4,30.32,SSW,201,7.0,11.0,65,0.00,,,0.00,WUHU216DAVISVP2,2013-02-02 06:06:00,
2013-02-02 00:11:00,25.6,15.9,30.32,South,191,9.0,11.0,66,0.00,,,0.00,WUHU216DAVISVP2,2013-02-02 06:11:00,
2013-02-02 00:16:00,25.7,15.6,30.32,SW,216,5.0,12.0,65,0.00,,,0.00,WUHU216DAVISVP2,2013-02-02 06:16:00,
2013-02-02 00:21:00,25.7,16.0,30.31,South,172,8.0,12.0,66,0.00,,,0.00,WUHU216DAVISVP2,2013-02-02 06:21:00,
2013-02-02 00:26:00,25.8,16.1,30.31,SSW,197,5.0,10.0,66,0.00,,,0.00,WUHU216DAVISVP2,2013-02-02 06:26:00,
2013-02-02 00:31:00,25.8,16.1,30.31,SSW,195,8.0,9.0,66,0.00,,,0.00,WUHU216DAVISVP2,2013-02-02 06:31:00,
2013-02-02 00:36:00,25.9,15.7,30.30,South,185,6.0,8.0,65,0.00,,,0.00,WUHU216DAVISVP2,2013-02-02 06:36:00,
2013-02-02 00:41:00,25.9,15.4,30.30,South,176,2.0,10.0,64,0.00,,,0.00,WUHU216DAVISVP2,2013-02-02 06:41:00,
2013-02-02 00:46:00,25.9,15.8,30.30,SSE,168,6.0,12.0,65,0.00,,,0.00,WUHU216DAVISVP2,2013-02-02 06:46:00,
2013-02-02 00:51:00,26.0,15.9,30.30,SSE,167,8.0,12.0,65,0.00,,,0.00,WUHU216DAVISVP2,2013-02-02 06:51:00,
2013-02-02 00:56:00,26.0,15.8,30.30,SSW,199,10.0,11.0,65,0.00,,,0.00,WUHU216DAVISVP2,2013-02-02 06:56:00,
2013-02-02 01:01:00,26.1,15.9,30.30,SSW,193,12.0,12.0,65,0.00,,,0.00,WUHU216DAVISVP2,2013-02-02 07:01:00,
2013-02-02 01:06:00,26.1,15.6,30.30,SW,214,9.0,13.0,64,0.00,,,0.00,WUHU216DAVISVP2,2013-02-02 07:06:00,
2013-02-02 01:11:00,26.1,16.0,30.29,South,186,7.0,13.0,65,0.00,,,0.00,WUHU216DAVISVP2,2013-02-02 07:11:00,
2013-02-02 01:16:00,26.1,15.6,30.30,SSW,193,10.0,12.0,64,0.00,,,0.00,WUHU216DAVISVP2,2013-02-02 07:16:00,
2013-02-02 01:21:00,26.2,16.4,30.30,SSW,198,8.0,12.0,66,0.00,,,0.00,WUHU216DAVISVP2,2013-02-02 07:21:00,
2013-02-02 01:26:00,26.2,16.1,30.29,SSW,200,8.0,14.0,65,0.00,,,0.00,WUHU216DAVISVP2,2013-02-02 07:26:00,
2013-02-02 01:31:00,26.2,16.4,30.30,SSW,202,5.0,14.0,66,0.00,,,0.00,WUHU216DAVISVP2,2013-02-02 07:31:00,
2013-02-02 01:37:00,26.3,16.5,30.30,SSW,202,9.0,13.0,66,0.00,,,0.00,WUHU216DAVISVP2,2013-02-02 07:37:00,
2013-02-02 01:42:00,26.3,16.5,30.30,South,179,5.0,13.0,66,0.00,,,0.00,WUHU216DAVISVP2,2013-02-02 07:42:00,
2013-02-02 01:48:00,26.3,16.5,30.29,SSW,203,16.0,16.0,66,0.00,,,0.00,WUHU216DAVISVP2,2013-02-02 07:48:00,
2013-02-02 01:53:00,26.3,16.9,30.28,South,182,6.0,16.0,67,0.00,,,0.00,WUHU216DAVISVP2,2013-02-02 07:53:00,
2013-02-02 01:58:00,26.3,16.9,30.28,South,172,5.0,14.0,67,0.00,,,0.00,WUHU216DAVISVP2,2013-02-02 07:58:00,
2013-02-02 02:05:00,26.3,16.9,30.27,SSW,201,7.0,14.0,67,0.00,,,0.00,WUHU216DAVISVP2,2013-02-02 08:05:00,
2013-02-02 02:10:00,26.2,16.4,30.27,SSW,192,6.0,13.0,66,0.00,,,0.00,WUHU216DAVISVP2,2013-02-02 08:10:00,
2013-02-02 02:15:00,26.3,16.9,30.27,SW,233,7.0,13.0,67,0.00,,,0.00,WUHU216DAVISVP2,2013-02-02 08:15:00,
2013-02-02 02:20:00,26.3,17.2,30.28,South,188,7.0,12.0,68,0.00,,,0.00,WUHU216DAVISVP2,2013-02-02 08:20:00,
2013-02-02 02:25:00,26.4,17.3,30.28,SSW,200,7.0,12.0,68,0.00,,,0.00,WUHU216DAVISVP2,2013-02-02 08:25:00,
2013-02-02 02:30:00,26.5,17.4,30.27,SSW,195,6.0,12.0,68,0.00,,,0.00,WUHU216DAVISVP2,2013-02-02 08:30:00,
2013-02-02 02:35:00,26.5,17.1,30.26,SSW,201,7.0,13.0,67,0.00,,,0.00,WUHU216DAVISVP2,2013-02-02 08:35:00,
2013-02-02 02:40:00,26.6,17.2,30.26,South,191,7.0,13.0,67,0.00,,,0.00,WUHU216DAVISVP2,2013-02-02 08:40:00,
2013-02-02 02:45:00,26.6,17.5,30.26,SSW,213,6.0,11.0,68,0.00,,,0.00,WUHU216DAVISVP2,2013-02-02 08:45:00,
2013-02-02 02:50:00,26.6,17.5,30.25,SSW,193,6.0,11.0,68,0.00,,,0.00,WUHU216DAVISVP2,2013-02-02 08:50:00,
2013-02-02 02:55:00,26.7,17.6,30.26,South,180,8.0,11.0,68,0.00,,,0.00,WUHU216DAVISVP2,2013-02-02 08:55:00,
2013-02-02 03:00:00,26.7,17.9,30.25,South,170,5.0,12.0,69,0.00,,,0.00,WUHU216DAVISVP2,2013-02-02 09:00:00,
2013-02-02 03:05:00,26.7,17.6,30.24,South,190,9.0,12.0,68,0.00,,,0.00,WUHU216DAVISVP2,2013-02-02 09:05:00,
2013-02-02 03:10:00,26.7,17.6,30.24,SSW,204,9.0,10.0,68,0.00,,,0.00,WUHU216DAVISVP2,2013-02-02 09:10:00,
2013-02-02 03:15:00,26.8,18.0,30.23,SSW,198,8.0,11.0,69,0.00,,,0.00,WUHU216DAVISVP2,2013-02-02 09:15:00,
2013-02-02 03:20:00,26.8,17.6,30.22,South,191,3.0,11.0,68,0.00,,,0.00,WUHU216DAVISVP2,2013-02-02 09:20:00,
2013-02-02 03:25:00,26.9,18.1,30.24,South,188,4.0,8.0,69,0.00,,,0.00,WUHU216DAVISVP2,2013-02-02 09:25:00,
2013-02-02 03:30:00,26.9,17.8,30.23,SSW,207,10.0,12.0,68,0.00,,,0.00,WUHU216DAVISVP2,2013-02-02 09:30:00,
2013-02-02 03:35:00,27.0,17.9,30.24,South,176,6.0,12.0,68,0.00,,,0.00,WUHU216DAVISVP2,2013-02-02 09:35:00,
2013-02-02 03:40:00,27.0,18.2,30.24,SW,217,11.0,12.0,69,0.00,,,0.00,WUHU216DAVISVP2,2013-02-02 09:40:00,
2013-02-02 03:45:00,27.1,18.3,30.23,South,184,6.0,12.0,69,0.00,,,0.00,WUHU216DAVISVP2,2013-02-02 09:45:00,
2013-02-02 03:50:00,27.1,18.7,30.24,SSW,213,5.0,11.0,70,0.00,,,0.00,WUHU216DAVISVP2,2013-02-02 09:50:00,
2013-02-02 03:55:00,27.2,18.1,30.24,SW,227,13.0,13.0,68,0.00,,,0.00,WUHU216DAVISVP2,2013-02-02 09:55:00,
2013-02-02 04:00:00,27.3,18.2,30.23,South,188,8.0,13.0,68,0.00,,,0.00,WUHU216DAVISVP2,2013-02-02 10:00:00,
2013-02-02 04:05:00,27.3,18.1,30.22,SSW,212,8.0,12.0,68,0.00,,,0.00,WUHU216DAVISVP2,2013-02-02 10:05:00,
2013-02-02 04:10:00,27.3,18.2,30.22,South,191,10.0,12.0,68,0.00,,,0.00,WUHU216DAVISVP2,2013-02-02 10:10:00,
2013-02-02 04:15:00,27.3,18.2,30.22,SSW,192,11.0,13.0,68,0.00,,,0.00,WUHU216DAVISVP2,2013-02-02 10:15:00,
2013-02-02 04:20:00,27.3,18.2,30.20,South,180,10.0,13.0,68,0.00,,,0.00,WUHU216DAVISVP2,2013-02-02 10:20:00,
2013-02-02 04:25:00,27.3,18.5,30.21,South,186,6.0,13.0,69,0.00,,,0.00,WUHU216DAVISVP2,2013-02-02 10:25:00,
2013-02-02 04:30:00,27.3,18.9,30.21,South,191,8.0,13.0,70,0.00,,,0.00,WUHU216DAVISVP2,2013-02-02 10:30:00,
2013-02-02 04:35:00,27.3,18.8,30.21,SSW,201,8.0,10.0,70,0.00,,,0.00,WUHU216DAVISVP2,2013-02-02 10:35:00,
2013-02-02 04:40:00,27.3,18.5,30.21,SSW,200,10.0,12.0,69,0.00,,,0.00,WUHU216DAVISVP2,2013-02-02 10:40:00,
2013-02-02 04:45:00,27.3,18.9,30.21,SSW,207,6.0,13.0,70,0.00,,,0.00,WUHU216DAVISVP2,2013-02-02 10:45:00,
2013-02-02 04:50:00,27.3,18.5,30.21,SSW,197,8.0,13.0,69,0.00,,,0.00,WUHU216DAVISVP2,2013-02-02 10:50:00,
2013-02-02 04:55:00,27.1,18.7,30.20,SSE,156,7.0,11.0,70,0.00,,,0.00,WUHU216DAVISVP2,2013-02-02 10:55:00,
2013-02-02 05:00:00,27.0,18.6,30.20,South,189,6.0,12.0,70,0.00,,,0.00,WUHU216DAVISVP2,2013-02-02 11:00:00,
2013-02-02 05:05:00,26.9,18.4,30.20,South,172,7.0,12.0,70,0.00,,,0.00,WUHU216DAVISVP2,2013-02-02 11:05:00,
2013-02-02 05:10:00,26.7,18.6,30.20,SSE,153,5.0,12.0,71,0.00,,,0.00,WUHU216DAVISVP2,2013-02-02 11:10:00,
2013-02-02 05:15:00,26.6,18.5,30.19,SSW,194,7.0,9.0,71,0.00,,,0.00,WUHU216DAVISVP2,2013-02-02 11:15:00,
2013-02-02 05:20:00,26.6,18.5,30.20,South,186,7.0,8.0,71,0.00,,,0.00,WUHU216DAVISVP2,2013-02-02 11:20:00,
2013-02-02 05:25:00,26.5,18.4,30.19,SSW,198,7.0,9.0,71,0.00,,,0.00,WUHU216DAVISVP2,2013-02-02 11:25:00,
2013-02-02 05:30:00,26.5,18.4,30.19,South,181,3.0,10.0,71,0.00,,,0.00,WUHU216DAVISVP2,2013-02-02 11:30:00,
2013-02-02 05:35:00,26.4,18.6,30.19,SSW,203,4.0,10.0,72,0.00,,,0.00,WUHU216DAVISVP2,2013-02-02 11:35:00,
2013-02-02 05:40:00,26.3,18.5,30.18,SSE,156,3.0,8.0,72,0.00,,,0.00,WUHU216DAVISVP2,2013-02-02 11:40:00,
2013-02-02 05:45:00,26.3,18.9,30.19,South,184,8.0,9.0,73,0.00,,,0.00,WUHU216DAVISVP2,2013-02-02 11:45:00,
2013-02-02 05:50:00,26.3,18.9,30.19,SW,217,5.0,9.0,73,0.00,,,0.00,WUHU216DAVISVP2,2013-02-02 11:50:00,
2013-02-02 05:55:00,26.5,18.7,30.18,SW,215,6.0,9.0,72,0.00,,,0.00,WUHU216DAVISVP2,2013-02-02 11:55:00,
2013-02-02 06:00:00,26.7,18.9,30.19,SSW,208,5.0,9.0,72,0.00,,,0.00,WUHU216DAVISVP2,2013-02-02 12:00:00,
2013-02-02 06:05:00,26.8,18.7,30.18,SW,215,6.0,10.0,71,0.00,,,0.00,WUHU216DAVISVP2,2013-02-02 12:05:00,
2013-02-02 06:10:00,26.9,19.1,30.18,SSW,195,6.0,10.0,72,0.00,,,0.00,WUHU216DAVISVP2,2013-02-02 12:10:00,
2013-02-02 06:15:00,27.0,18.8,30.18,South,189,7.0,10.0,71,0.00,,,0.00,WUHU216DAVISVP2,2013-02-02 12:15:00,
2013-02-02 06:20:00,27.1,19.0,30.17,SSW,207,8.0,10.0,71,0.00,,,0.00,WUHU216DAVISVP2,2013-02-02 12:20:00,
2013-02-02 06:25:00,27.1,19.0,30.17,SSW,198,6.0,10.0,71,0.00,,,0.00,WUHU216DAVISVP2,2013-02-02 12:25:00,
2013-02-02 06:30:00,27.2,19.1,30.18,South,190,5.0,10.0,71,0.00,,,0.00,WUHU216DAVISVP2,2013-02-02 12:30:00,
2013-02-02 06:35:00,27.2,19.4,30.18,SSW,205,5.0,10.0,72,0.00,,,0.00,WUHU216DAVISVP2,2013-02-02 12:35:00,
2013-02-02 06:40:00,27.3,19.5,30.18,SSW,207,4.0,10.0,72,0.00,,,0.00,WUHU216DAVISVP2,2013-02-02 12:40:00,
2013-02-02 06:45:00,27.3,19.5,30.18,SSW,212,4.0,10.0,72,0.00,,,0.00,WUHU216DAVISVP2,2013-02-02 12:45:00,
2013-02-02 06:50:00,27.4,19.2,30.18,SW,216,5.0,9.0,71,0.00,,,0.00,WUHU216DAVISVP2,2013-02-02 12:50:00,
2013-02-02 06:55:00,27.4,19.3,30.18,SSW,207,4.0,9.0,71,0.00,,,0.00,WUHU216DAVISVP2,2013-02-02 12:55:00,
2013-02-02 07:00:00,27.5,19.4,30.18,SW,219,8.0,8.0,71,0.00,,,0.00,WUHU216DAVISVP2,2013-02-02 13:00:00,
2013-02-02 07:05:00,27.7,19.2,30.17,SW,224,4.0,8.0,70,0.00,,,0.00,WUHU216DAVISVP2,2013-02-02 13:05:00,
2013-02-02 07:10:00,27.9,19.1,30.17,SSW,212,6.0,11.0,69,0.00,,,0.00,WUHU216DAVISVP2,2013-02-02 13:10:00,
2013-02-02 07:15:00,28.0,19.2,30.17,SSW,210,4.0,11.0,69,0.00,,,0.00,WUHU216DAVISVP2,2013-02-02 13:15:00,
2013-02-02 07:20:00,28.1,19.3,30.17,SW,214,3.0,8.0,69,0.00,,,0.00,WUHU216DAVISVP2,2013-02-02 13:20:00,
2013-02-02 07:25:00,28.2,19.4,30.17,SSW,207,6.0,8.0,69,0.00,,,0.00,WUHU216DAVISVP2,2013-02-02 13:25:00,
2013-02-02 07:30:00,28.3,19.1,30.17,SSW,210,4.0,9.0,68,0.00,,,0.00,WUHU216DAVISVP2,2013-02-02 13:30:00,
2013-02-02 07:35:00,28.5,19.3,30.17,SW,222,7.0,9.0,68,0.00,,,0.00,WUHU216DAVISVP2,2013-02-02 13:35:00,
2013-02-02 07:40:00,28.6,19.4,30.17,SW,228,10.0,10.0,68,0.00,,,0.00,WUHU216DAVISVP2,2013-02-02 13:40:00,
2013-02-02 07:45:00,28.8,19.3,30.17,SW,214,5.0,10.0,67,0.00,,,0.00,WUHU216DAVISVP2,2013-02-02 13:45:00,
2013-02-02 07:50:00,29.0,19.8,30.17,SSW,213,8.0,10.0,68,0.00,,,0.00,WUHU216DAVISVP2,2013-02-02 13:50:00,
2013-02-02 07:55:00,29.0,19.8,30.16,SW,220,8.0,11.0,68,0.00,,,0.00,WUHU216DAVISVP2,2013-02-02 13:55:00,
2013-02-02 08:00:00,29.2,19.6,30.16,SSW,210,6.0,11.0,67,0.00,,,0.00,WUHU216DAVISVP2,2013-02-02 14:00:00,
2013-02-02 08:05:00,29.2,19.7,30.16,SW,223,5.0,9.0,67,0.00,,,0.00,WUHU216DAVISVP2,2013-02-02 14:05:00,
2013-02-02 08:10:00,29.3,20.1,30.16,SW,226,6.0,9.0,68,0.00,,,0.00,WUHU216DAVISVP2,2013-02-02 14:10:00,
2013-02-02 08:15:00,29.5,20.0,30.16,South,188,4.0,9.0,67,0.00,,,0.00,WUHU216DAVISVP2,2013-02-02 14:15:00,
2013-02-02 08:20:00,29.7,20.1,30.16,South,178,5.0,11.0,67,0.00,,,0.00,WUHU216DAVISVP2,2013-02-02 14:20:00,
2013-02-02 08:25:00,30.0,19.7,30.16,SSW,194,4.0,11.0,65,0.00,,,0.00,WUHU216DAVISVP2,2013-02-02 14:25:00,
2013-02-02 08:30:00,30.4,20.5,30.15,SW,219,9.0,10.0,66,0.00,,,0.00,WUHU216DAVISVP2,2013-02-02 14:30:00,
2013-02-02 08:35:00,30.5,19.8,30.15,SSW,210,6.0,11.0,64,0.00,,,0.00,WUHU216DAVISVP2,2013-02-02 14:35:00,
2013-02-02 08:40:00,30.6,20.3,30.15,SW,219,10.0,12.0,65,0.00,,,0.00,WUHU216DAVISVP2,2013-02-02 14:40:00,
2013-02-02 08:45:00,30.9,20.6,30.15,SSW,211,10.0,13.0,65,0.00,,,0.00,WUHU216DAVISVP2,2013-02-02 14:45:00,
2013-02-02 08:51:00,31.2,20.5,30.15,SSW,213,8.0,13.0,64,0.00,,,0.00,WUHU216DAVISVP2,2013-02-02 14:51:00,
2013-02-02 08:56:00,31.5,21.2,30.15,South,186,8.0,12.0,65,0.00,,,0.00,WUHU216DAVISVP2,2013-02-02 14:56:00,
2013-02-02 09:01:00,31.7,20.9,30.15,SSW,202,4.0,11.0,64,0.00,,,0.00,WUHU216DAVISVP2,2013-02-02 15:01:00,
2013-02-02 09:06:00,31.7,20.9,30.15,SW,233,5.0,11.0,64,0.00,,,0.00,WUHU216DAVISVP2,2013-02-02 15:06:00,
2013-02-02 09:11:00,31.8,21.1,30.15,SSW,205,7.0,10.0,64,0.00,,,0.00,WUHU216DAVISVP2,2013-02-02 15:11:00,
2013-02-02 09:16:00,31.9,21.5,30.15,SW,231,4.0,10.0,65,0.00,,,0.00,WUHU216DAVISVP2,2013-02-02 15:16:00,
2013-02-02 09:21:00,32.0,20.9,30.15,SW,217,7.0,10.0,63,0.00,,,0.00,WUHU216DAVISVP2,2013-02-02 15:21:00,
2013-02-02 09:26:00,32.1,21.0,30.15,WSW,252,9.0,10.0,63,0.00,,,0.00,WUHU216DAVISVP2,2013-02-02 15:26:00,
2013-02-02 09:31:00,32.2,21.0,30.15,SSW,204,5.0,10.0,63,0.00,,,0.00,WUHU216DAVISVP2,2013-02-02 15:31:00,
2013-02-02 09:36:00,32.3,21.5,30.15,SW,224,6.0,10.0,64,0.00,,,0.00,WUHU216DAVISVP2,2013-02-02 15:36:00,
2013-02-02 09:41:00,32.4,22.0,30.15,SW,226,5.0,10.0,65,0.00,,,0.00,WUHU216DAVISVP2,2013-02-02 15:41:00,
2013-02-02 09:46:00,32.6,21.5,30.15,SSW,210,5.0,11.0,63,0.00,,,0.00,WUHU216DAVISVP2,2013-02-02 15:46:00,
2013-02-02 09:51:00,32.7,21.9,30.15,SW,215,4.0,11.0,64,0.00,,,0.00,WUHU216DAVISVP2,2013-02-02 15:51:00,
2013-02-02 09:56:00,32.8,21.6,30.15,WSW,248,6.0,9.0,63,0.00,,,0.00,WUHU216DAVISVP2,2013-02-02 15:56:00,
2013-02-02 10:01:00,32.9,22.1,30.15,SW,229,9.0,9.0,64,0.00,,,0.00,WUHU216DAVISVP2,2013-02-02 16:01:00,
2013-02-02 10:06:00,33.2,22.8,30.15,West,276,3.0,9.0,65,0.00,,,0.00,WUHU216DAVISVP2,2013-02-02 16:06:00,
2013-02-02 10:12:00,33.4,22.2,30.15,West,262,7.0,8.0,63,0.00,,,0.00,WUHU216DAVISVP2,2013-02-02 16:12:00,
2013-02-02 10:17:00,33.7,22.4,30.14,SW,231,3.0,8.0,63,0.00,,,0.00,WUHU216DAVISVP2,2013-02-02 16:17:00,
2013-02-02 10:22:00,33.8,22.6,30.15,SW,219,10.0,10.0,63,0.00,,,0.00,WUHU216DAVISVP2,2013-02-02 16:22:00,
2013-02-02 10:27:00,33.7,22.1,30.14,SW,231,7.0,12.0,62,0.00,,,0.00,WUHU216DAVISVP2,2013-02-02 16:27:00,
2013-02-02 10:32:00,33.8,22.2,30.14,SW,226,5.0,12.0,62,0.00,,,0.00,WUHU216DAVISVP2,2013-02-02 16:32:00,
2013-02-02 10:37:00,34.0,22.8,30.14,SSW,207,5.0,11.0,63,0.00,,,0.00,WUHU216DAVISVP2,2013-02-02 16:37:00,
2013-02-02 10:42:00,34.3,22.7,30.13,SSW,205,5.0,9.0,62,0.00,,,0.00,WUHU216DAVISVP2,2013-02-02 16:42:00,
2013-02-02 10:47:00,34.7,23.0,30.13,WSW,243,8.0,9.0,62,0.00,,,0.00,WUHU216DAVISVP2,2013-02-02 16:47:00,
2013-02-02 10:52:00,35.0,22.9,30.13,SW,221,6.0,11.0,61,0.00,,,0.00,WUHU216DAVISVP2,2013-02-02 16:52:00,
2013-02-02 10:57:00,35.3,23.2,30.13,SW,221,5.0,11.0,61,0.00,,,0.00,WUHU216DAVISVP2,2013-02-02 16:57:00,
2013-02-02 11:02:00,35.6,23.9,30.13,WSW,246,3.0,10.0,62,0.00,,,0.00,WUHU216DAVISVP2,2013-02-02 17:02:00,
2013-02-02 11:07:00,35.7,23.2,30.13,WSW,245,2.0,10.0,60,0.00,,,0.00,WUHU216DAVISVP2,2013-02-02 17:07:00,
2013-02-02 11:12:00,35.9,23.4,30.13,WSW,237,4.0,10.0,60,0.00,,,0.00,WUHU216DAVISVP2,2013-02-02 17:12:00,
2013-02-02 11:17:00,36.0,23.4,30.13,West,266,4.0,10.0,60,0.00,,,0.00,WUHU216DAVISVP2,2013-02-02 17:17:00,
2013-02-02 11:22:00,36.4,23.8,30.12,WSW,248,4.0,10.0,60,0.00,,,0.00,WUHU216DAVISVP2,2013-02-02 17:22:00,
2013-02-02 11:27:00,36.5,22.3,30.13,West,264,10.0,10.0,56,0.00,,,0.00,WUHU216DAVISVP2,2013-02-02 17:27:00,
2013-02-02 11:32:00,36.8,23.0,30.12,WNW,284,8.0,11.0,57,0.00,,,0.00,WUHU216DAVISVP2,2013-02-02 17:32:00,
2013-02-02 11:37:00,37.5,24.1,30.12,WNW,293,7.0,12.0,58,0.00,,,0.00,WUHU216DAVISVP2,2013-02-02 17:37:00,
2013-02-02 11:43:00,38.0,24.1,30.12,SW,227,5.0,13.0,57,0.00,,,0.00,WUHU216DAVISVP2,2013-02-02 17:43:00,
2013-02-02 11:48:00,38.4,23.6,30.12,WNW,288,5.0,13.0,55,0.00,,,0.00,WUHU216DAVISVP2,2013-02-02 17:48:00,
2013-02-02 11:53:00,38.7,23.5,30.12,WSW,257,6.0,12.0,54,0.00,,,0.00,WUHU216DAVISVP2,2013-02-02 17:53:00,
2013-02-02 11:58:00,38.3,23.1,30.12,West,274,8.0,11.0,54,0.00,,,0.00,WUHU216DAVISVP2,2013-02-02 17:58:00,
2013-02-02 12:03:00,38.1,22.9,30.11,West,276,9.0,13.0,54,0.00,,,0.00,WUHU216DAVISVP2,2013-02-02 18:03:00,
2013-02-02 12:08:00,38.6,24.2,30.11,WNW,289,9.0,13.0,56,0.00,,,0.00,WUHU216DAVISVP2,2013-02-02 18:08:00,
2013-02-02 12:14:00,39.2,25.2,30.11,NW,306,10.0,12.0,57,0.00,,,0.00,WUHU216DAVISVP2,2013-02-02 18:14:00,
2013-02-02 12:19:00,39.0,25.1,30.11,West,274,7.0,14.0,57,0.00,,,0.00,WUHU216DAVISVP2,2013-02-02 18:19:00,
2013-02-02 12:25:00,38.7,24.4,30.11,WNW,286,7.0,15.0,56,0.00,,,0.00,WUHU216DAVISVP2,2013-02-02 18:25:00,
2013-02-02 12:30:00,38.7,24.4,30.11,WNW,293,5.0,15.0,56,0.00,,,0.00,WUHU216DAVISVP2,2013-02-02 18:30:00,
2013-02-02 12:35:00,39.0,25.0,30.10,West,281,9.0,14.0,57,0.00,,,0.00,WUHU216DAVISVP2,2013-02-02 18:35:00,
2013-02-02 12:40:00,39.2,25.7,30.10,West,266,8.0,14.0,58,0.00,,,0.00,WUHU216DAVISVP2,2013-02-02 18:40:00,
2013-02-02 12:45:00,39.8,25.4,30.10,WNW,292,7.0,15.0,56,0.00,,,0.00,WUHU216DAVISVP2,2013-02-02 18:45:00,
2013-02-02 12:50:00,40.3,25.9,30.10,West,275,4.0,15.0,56,0.00,,,0.00,WUHU216DAVISVP2,2013-02-02 18:50:00,
2013-02-02 12:55:00,40.4,26.0,30.10,WNW,290,12.0,14.0,56,0.00,,,0.00,WUHU216DAVISVP2,2013-02-02 18:55:00,
2013-02-02 13:00:00,40.3,25.9,30.10,WNW,295,9.0,14.0,56,0.00,,,0.00,WUHU216DAVISVP2,2013-02-02 19:00:00,
2013-02-02 13:05:00,40.4,26.8,30.09,NW,307,4.0,14.0,58,0.00,,,0.00,WUHU216DAVISVP2,2013-02-02 19:05:00,
2013-02-02 13:10:00,40.3,26.3,30.10,NW,314,5.0,13.0,57,0.00,,,0.00,WUHU216DAVISVP2,2013-02-02 19:10:00,
2013-02-02 13:15:00,40.9,27.3,30.10,WNW,302,5.0,13.0,58,0.00,,,0.00,WUHU216DAVISVP2,2013-02-02 19:15:00,
2013-02-02 13:20:00,40.8,27.2,30.09,North,349,3.0,15.0,58,0.00,,,0.00,WUHU216DAVISVP2,2013-02-02 19:20:00,
2013-02-02 13:26:00,40.9,26.4,30.10,WNW,294,6.0,15.0,56,0.00,,,0.00,WUHU216DAVISVP2,2013-02-02 19:26:00,
2013-02-02 13:31:00,41.0,25.6,30.10,WNW,285,9.0,13.0,54,0.00,,,0.00,WUHU216DAVISVP2,2013-02-02 19:31:00,
2013-02-02 13:37:00,41.0,26.5,30.10,West,265,11.0,15.0,56,0.00,,,0.00,WUHU216DAVISVP2,2013-02-02 19:37:00,
2013-02-02 13:42:00,40.9,26.4,30.10,WNW,302,6.0,15.0,56,0.00,,,0.00,WUHU216DAVISVP2,2013-02-02 19:42:00,
2013-02-02 13:47:00,41.1,24.8,30.10,WSW,250,11.0,14.0,52,0.00,,,0.00,WUHU216DAVISVP2,2013-02-02 19:47:00,
2013-02-02 13:52:00,41.2,26.3,30.10,West,278,7.0,14.0,55,0.00,,,0.00,WUHU216DAVISVP2,2013-02-02 19:52:00,
2013-02-02 13:57:00,41.3,25.4,30.10,West,259,7.0,14.0,53,0.00,,,0.00,WUHU216DAVISVP2,2013-02-02 19:57:00,
2013-02-02 14:02:00,41.6,27.1,30.10,WNW,294,12.0,16.0,56,0.00,,,0.00,WUHU216DAVISVP2,2013-02-02 20:02:00,
2013-02-02 14:08:00,41.4,26.0,30.10,West,268,7.0,16.0,54,0.00,,,0.00,WUHU216DAVISVP2,2013-02-02 20:08:00,
2013-02-02 14:13:00,41.6,26.6,30.10,WNW,300,9.0,14.0,55,0.00,,,0.00,WUHU216DAVISVP2,2013-02-02 20:13:00,
2013-02-02 14:18:00,41.7,24.9,30.10,WNW,288,12.0,14.0,51,0.00,,,0.00,WUHU216DAVISVP2,2013-02-02 20:18:00,
2013-02-02 14:23:00,41.7,26.3,30.10,West,262,12.0,16.0,54,0.00,,,0.00,WUHU216DAVISVP2,2013-02-02 20:23:00,
2013-02-02 14:28:00,41.7,25.8,30.10,NW,318,3.0,16.0,53,0.00,,,0.00,WUHU216DAVISVP2,2013-02-02 20:28:00,
2013-02-02 14:32:00,41.7,25.8,30.10,NW,310,4.0,15.0,53,0.00,,,0.00,WUHU216DAVISVP2,2013-02-02 20:32:00,
2013-02-02 14:38:00,42.1,25.7,30.10,NW,314,3.0,15.0,52,0.00,,,0.00,WUHU216DAVISVP2,2013-02-02 20:38:00,
2013-02-02 14:43:00,42.3,26.8,30.10,NNW,327,8.0,15.0,54,0.00,,,0.00,WUHU216DAVISVP2,2013-02-02 20:43:00,
2013-02-02 14:48:00,41.8,26.8,30.10,NNW,344,12.0,15.0,55,0.00,,,0.00,WUHU216DAVISVP2,2013-02-02 20:48:00,
2013-02-02 14:53:00,41.4,26.5,30.10,NW,309,7.0,14.0,55,0.00,,,0.00,WUHU216DAVISVP2,2013-02-02 20:53:00,
2013-02-02 14:58:00,41.5,26.1,30.10,NW,310,5.0,14.0,54,0.00,,,0.00,WUHU216DAVISVP2,2013-02-02 20:58:00,
2013-02-02 15:03:00,41.5,26.1,30.10,WNW,303,6.0,14.0,54,0.00,,,0.00,WUHU216DAVISVP2,2013-02-02 21:03:00,
2013-02-02 15:09:00,41.8,25.9,30.10,NW,326,5.0,14.0,53,0.00,,,0.00,WUHU216DAVISVP2,2013-02-02 21:09:00,
2013-02-02 15:14:00,41.6,25.3,30.10,NW,310,11.0,13.0,52,0.00,,,0.00,WUHU216DAVISVP2,2013-02-02 21:14:00,
2013-02-02 15:20:00,41.5,26.1,30.10,NW,320,3.0,13.0,54,0.00,,,0.00,WUHU216DAVISVP2,2013-02-02 21:20:00,
2013-02-02 15:25:00,41.4,26.5,30.10,NW,321,7.0,13.0,55,0.00,,,0.00,WUHU216DAVISVP2,2013-02-02 21:25:00,
2013-02-02 15:30:00,41.6,25.7,30.11,NNW,330,12.0,13.0,53,0.00,,,0.00,WUHU216DAVISVP2,2013-02-02 21:30:00,
2013-02-02 15:35:00,41.2,25.8,30.10,WNW,288,6.0,13.0,54,0.00,,,0.00,WUHU216DAVISVP2,2013-02-02 21:35:00,
2013-02-02 15:41:00,40.6,25.3,30.11,NW,310,6.0,14.0,54,0.00,,,0.00,WUHU216DAVISVP2,2013-02-02 21:41:00,
2013-02-02 15:46:00,40.3,24.5,30.11,NW,316,4.0,14.0,53,0.00,,,0.00,WUHU216DAVISVP2,2013-02-02 21:46:00,
2013-02-02 15:51:00,40.1,25.2,30.11,NW,308,7.0,12.0,55,0.00,,,0.00,WUHU216DAVISVP2,2013-02-02 21:51:00,
2013-02-02 15:56:00,40.0,25.6,30.11,NW,325,6.0,11.0,56,0.00,,,0.00,WUHU216DAVISVP2,2013-02-02 21:56:00,
2013-02-02 16:01:00,39.9,25.5,30.11,NW,319,5.0,11.0,56,0.00,,,0.00,WUHU216DAVISVP2,2013-02-02 22:01:00,
2013-02-02 16:06:00,39.9,26.4,30.11,NW,306,3.0,9.0,58,0.00,,,0.00,WUHU216DAVISVP2,2013-02-02 22:06:00,
2013-02-02 16:11:00,39.8,26.3,30.12,WNW,299,9.0,9.0,58,0.00,,,0.00,WUHU216DAVISVP2,2013-02-02 22:11:00,
2013-02-02 16:16:00,39.7,26.2,30.11,NW,318,8.0,9.0,58,0.00,,,0.00,WUHU216DAVISVP2,2013-02-02 22:16:00,
2013-02-02 16:22:00,39.6,26.5,30.11,NW,309,4.0,10.0,59,0.00,,,0.00,WUHU216DAVISVP2,2013-02-02 22:22:00,
2013-02-02 16:27:00,39.5,26.3,30.11,WNW,298,8.0,8.0,59,0.00,,,0.00,WUHU216DAVISVP2,2013-02-02 22:27:00,
2013-02-02 16:32:00,39.4,26.7,30.11,WNW,302,6.0,9.0,60,0.00,,,0.00,WUHU216DAVISVP2,2013-02-02 22:32:00,
2013-02-02 16:37:00,39.3,26.6,30.11,NW,321,4.0,8.0,60,0.00,,,0.00,WUHU216DAVISVP2,2013-02-02 22:37:00,
2013-02-02 16:42:00,39.1,26.4,30.11,NW,307,3.0,8.0,60,0.00,,,0.00,WUHU216DAVISVP2,2013-02-02 22:42:00,
2013-02-02 16:47:00,39.1,26.8,30.12,NW,307,2.0,6.0,61,0.00,,,0.00,WUHU216DAVISVP2,2013-02-02 22:47:00,
2013-02-02 16:52:00,38.9,26.7,30.12,NW,314,4.0,4.0,61,0.00,,,0.00,WUHU216DAVISVP2,2013-02-02 22:52:00,
2013-02-02 16:57:00,38.9,27.4,30.12,WNW,287,1.0,4.0,63,0.00,,,0.00,WUHU216DAVISVP2,2013-02-02 22:57:00,
2013-02-02 17:02:00,38.8,27.3,30.12,NW,324,3.0,6.0,63,0.00,,,0.00,WUHU216DAVISVP2,2013-02-02 23:02:00,
2013-02-02 17:07:00,38.9,27.8,30.12,WNW,283,6.0,11.0,64,0.00,,,0.00,WUHU216DAVISVP2,2013-02-02 23:07:00,
2013-02-02 17:12:00,39.1,28.0,30.12,NW,315,13.0,13.0,64,0.00,,,0.00,WUHU216DAVISVP2,2013-02-02 23:12:00,
2013-02-02 17:17:00,39.1,28.0,30.12,NW,318,6.0,13.0,64,0.00,,,0.00,WUHU216DAVISVP2,2013-02-02 23:17:00,
2013-02-02 17:22:00,38.9,28.2,30.12,NNW,336,7.0,16.0,65,0.00,,,0.00,WUHU216DAVISVP2,2013-02-02 23:22:00,
2013-02-02 17:27:00,38.7,28.0,30.12,NNW,329,5.0,16.0,65,0.00,,,0.00,WUHU216DAVISVP2,2013-02-02 23:27:00,
2013-02-02 17:32:00,38.4,28.1,30.13,NW,310,5.0,13.0,66,0.00,,,0.00,WUHU216DAVISVP2,2013-02-02 23:32:00,
2013-02-02 17:37:00,38.1,27.7,30.13,NW,319,5.0,10.0,66,0.00,,,0.00,WUHU216DAVISVP2,2013-02-02 23:37:00,
2013-02-02 17:42:00,37.9,27.9,30.13,NNW,328,7.0,11.0,67,0.00,,,0.00,WUHU216DAVISVP2,2013-02-02 23:42:00,
2013-02-02 17:47:00,37.7,28.2,30.13,NW,316,8.0,11.0,68,0.00,,,0.00,WUHU216DAVISVP2,2013-02-02 23:47:00,
2013-02-02 17:53:00,37.6,28.1,30.13,NNW,335,4.0,11.0,68,0.00,,,0.00,WUHU216DAVISVP2,2013-02-02 23:53:00,
2013-02-02 17:58:00,37.5,28.0,30.13,NW,319,5.0,11.0,68,0.00,,,0.00,WUHU216DAVISVP2,2013-02-02 23:58:00,
2013-02-02 18:03:00,37.3,28.1,30.13,NW,315,8.0,10.0,69,0.00,,,0.00,WUHU216DAVISVP2,2013-02-03 00:03:00,
2013-02-02 18:08:00,37.1,27.9,30.13,WNW,302,3.0,10.0,69,0.00,,,0.00,WUHU216DAVISVP2,2013-02-03 00:08:00,
2013-02-02 18:13:00,37.0,28.1,30.14,NW,319,7.0,10.0,70,0.00,,,0.00,WUHU216DAVISVP2,2013-02-03 00:13:00,
2013-02-02 18:18:00,36.9,28.1,30.14,NW,309,4.0,12.0,70,0.00,,,0.00,WUHU216DAVISVP2,2013-02-03 00:18:00,
2013-02-02 18:23:00,36.8,27.9,30.14,NW,314,5.0,12.0,70,0.00,,,0.00,WUHU216DAVISVP2,2013-02-03 00:23:00,
2013-02-02 18:28:00,36.7,27.9,30.15,NW,312,4.0,8.0,70,0.00,,,0.00,WUHU216DAVISVP2,2013-02-03 00:28:00,
2013-02-02 18:33:00,36.6,28.2,30.15,NW,323,6.0,11.0,71,0.00,,,0.00,WUHU216DAVISVP2,2013-02-03 00:33:00,
2013-02-02 18:38:00,36.5,27.7,30.15,WNW,300,6.0,11.0,70,0.00,,,0.00,WUHU216DAVISVP2,2013-02-03 00:38:00,
2013-02-02 18:43:00,36.4,27.5,30.16,WNW,285,4.0,10.0,70,0.00,,,0.00,WUHU216DAVISVP2,2013-02-03 00:43:00,
2013-02-02 18:48:00,36.2,27.8,30.16,NW,326,6.0,9.0,71,0.00,,,0.00,WUHU216DAVISVP2,2013-02-03 00:48:00,
2013-02-02 18:53:00,36.1,27.7,30.16,NW,304,7.0,10.0,71,0.00,,,0.00,WUHU216DAVISVP2,2013-02-03 00:53:00,
2013-02-02 18:58:00,36.1,27.6,30.16,NNW,332,11.0,11.0,71,0.00,,,0.00,WUHU216DAVISVP2,2013-02-03 00:58:00,
2013-02-02 19:03:00,36.1,27.7,30.16,NW,307,5.0,11.0,71,0.00,,,0.00,WUHU216DAVISVP2,2013-02-03 01:03:00,
2013-02-02 19:08:00,36.1,27.7,30.16,NNW,330,6.0,11.0,71,0.00,,,0.00,WUHU216DAVISVP2,2013-02-03 01:08:00,
2013-02-02 19:13:00,35.9,27.4,30.16,WNW,295,6.0,11.0,71,0.00,,,0.00,WUHU216DAVISVP2,2013-02-03 01:13:00,
2013-02-02 19:18:00,35.9,27.4,30.15,NW,309,3.0,9.0,71,0.00,,,0.00,WUHU216DAVISVP2,2013-02-03 01:18:00,
2013-02-02 19:23:00,35.8,27.4,30.15,NNW,327,6.0,14.0,71,0.00,,,0.00,WUHU216DAVISVP2,2013-02-03 01:23:00,
2013-02-02 19:28:00,35.6,27.5,30.16,NW,322,3.0,14.0,72,0.00,,,0.00,WUHU216DAVISVP2,2013-02-03 01:28:00,
2013-02-02 19:33:00,35.5,27.4,30.16,WNW,295,4.0,9.0,72,0.00,,,0.00,WUHU216DAVISVP2,2013-02-03 01:33:00,
2013-02-02 19:38:00,35.3,27.6,30.16,NNW,333,5.0,9.0,73,0.00,,,0.00,WUHU216DAVISVP2,2013-02-03 01:38:00,
2013-02-02 19:43:00,35.2,27.5,30.16,NW,321,3.0,7.0,73,0.00,,,0.00,WUHU216DAVISVP2,2013-02-03 01:43:00,
2013-02-02 19:48:00,35.1,27.3,30.16,NW,306,3.0,7.0,73,0.00,,,0.00,WUHU216DAVISVP2,2013-02-03 01:48:00,
2013-02-02 19:53:00,34.9,27.5,30.16,NW,321,2.0,7.0,74,0.00,,,0.00,WUHU216DAVISVP2,2013-02-03 01:53:00,
2013-02-02 19:58:00,34.6,27.5,30.16,West,271,2.0,4.0,75,0.00,,,0.00,WUHU216DAVISVP2,2013-02-03 01:58:00,
2013-02-02 20:03:00,34.5,27.4,30.15,NW,314,3.0,6.0,75,0.00,,,0.00,WUHU216DAVISVP2,2013-02-03 02:03:00,
2013-02-02 20:08:00,34.4,27.7,30.15,NNW,331,2.0,6.0,76,0.00,,,0.00,WUHU216DAVISVP2,2013-02-03 02:08:00,
2013-02-02 20:13:00,34.4,27.7,30.15,NW,321,5.0,5.0,76,0.00,,,0.00,WUHU216DAVISVP2,2013-02-03 02:13:00,
2013-02-02 20:18:00,34.3,27.9,30.15,NNW,338,2.0,6.0,77,0.00,,,0.00,WUHU216DAVISVP2,2013-02-03 02:18:00,
2013-02-02 20:23:00,33.9,27.2,30.15,North,352,1.0,6.0,76,0.00,,,0.00,WUHU216DAVISVP2,2013-02-03 02:23:00,
2013-02-02 20:28:00,33.5,27.1,30.16,NNE,18,0.0,3.0,77,0.00,,,0.00,WUHU216DAVISVP2,2013-02-03 02:28:00,
2013-02-02 20:33:00,33.2,27.1,30.16,NNW,341,0.0,3.0,78,0.00,,,0.00,WUHU216DAVISVP2,2013-02-03 02:33:00,
2013-02-02 20:38:00,32.9,27.1,30.15,North,1,1.0,4.0,79,0.00,,,0.00,WUHU216DAVISVP2,2013-02-03 02:38:00,
2013-02-02 20:43:00,32.5,27.0,30.16,NNW,345,4.0,4.0,80,0.00,,,0.00,WUHU216DAVISVP2,2013-02-03 02:43:00,
2013-02-02 20:48:00,32.3,27.1,30.16,NW,320,3.0,4.0,81,0.00,,,0.00,WUHU216DAVISVP2,2013-02-03 02:48:00,
2013-02-02 20:54:00,31.9,27.0,30.16,NNW,346,1.0,4.0,82,0.00,,,0.00,WUHU216DAVISVP2,2013-02-03 02:54:00,
2013-02-02 20:59:00,31.7,26.8,30.16,NNW,346,4.0,4.0,82,0.00,,,0.00,WUHU216DAVISVP2,2013-02-03 02:59:00,
2013-02-02 21:05:00,31.4,26.5,30.16,North,355,3.0,4.0,82,0.00,,,0.00,WUHU216DAVISVP2,2013-02-03 03:05:00,
2013-02-02 21:10:00,31.3,26.4,30.16,NNW,332,2.0,4.0,82,0.00,,,0.00,WUHU216DAVISVP2,2013-02-03 03:10:00,
2013-02-02 21:15:00,31.2,26.3,30.16,North,1,3.0,5.0,82,0.00,,,0.00,WUHU216DAVISVP2,2013-02-03 03:15:00,
2013-02-02 21:20:00,31.0,26.1,30.16,NNW,328,0.0,5.0,82,0.00,,,0.00,WUHU216DAVISVP2,2013-02-03 03:20:00,
2013-02-02 21:25:00,30.7,26.1,30.15,NNW,339,0.0,3.0,83,0.00,,,0.00,WUHU216DAVISVP2,2013-02-03 03:25:00,
2013-02-02 21:30:00,30.4,25.6,30.15,NNW,339,1.0,2.0,82,0.00,,,0.00,WUHU216DAVISVP2,2013-02-03 03:30:00,
2013-02-02 21:36:00,30.2,25.6,30.15,NNW,339,0.0,1.0,83,0.00,,,0.00,WUHU216DAVISVP2,2013-02-03 03:36:00,
2013-02-02 21:41:00,30.1,25.5,30.14,NNW,339,0.0,1.0,83,0.00,,,0.00,WUHU216DAVISVP2,2013-02-03 03:41:00,
2013-02-02 21:46:00,30.1,25.6,30.14,ENE,69,0.0,1.0,83,0.00,,,0.00,WUHU216DAVISVP2,2013-02-03 03:46:00,
2013-02-02 21:51:00,30.1,25.3,30.13,ENE,68,1.0,1.0,82,0.00,,,0.00,WUHU216DAVISVP2,2013-02-03 03:51:00,
2013-02-02 21:56:00,30.1,25.0,30.13,ENE,67,0.0,1.0,81,0.00,,,0.00,WUHU216DAVISVP2,2013-02-03 03:56:00,
2013-02-02 22:01:00,30.0,24.9,30.13,East,99,0.0,1.0,81,0.00,,,0.00,WUHU216DAVISVP2,2013-02-03 04:01:00,
2013-02-02 22:06:00,29.8,24.7,30.13,East,98,0.0,1.0,81,0.00,,,0.00,WUHU216DAVISVP2,2013-02-03 04:06:00,
2013-02-02 22:11:00,29.6,24.5,30.13,East,98,0.0,1.0,81,0.00,,,0.00,WUHU216DAVISVP2,2013-02-03 04:11:00,
2013-02-02 22:16:00,29.5,24.4,30.13,East,98,0.0,0.0,81,0.00,,,0.00,WUHU216DAVISVP2,2013-02-03 04:16:00,
2013-02-02 22:21:00,29.4,24.3,30.12,East,98,0.0,0.0,81,0.00,,,0.00,WUHU216DAVISVP2,2013-02-03 04:21:00,
2013-02-02 22:26:00,29.3,24.2,30.13,East,98,0.0,0.0,81,0.00,,,0.00,WUHU216DAVISVP2,2013-02-03 04:26:00,
2013-02-02 22:31:00,29.1,24.3,30.12,East,98,0.0,0.0,82,0.00,,,0.00,WUHU216DAVISVP2,2013-02-03 04:31:00,
2013-02-02 22:36:00,29.1,24.6,30.12,SSE,150,0.0,1.0,83,0.00,,,0.00,WUHU216DAVISVP2,2013-02-03 04:36:00,
2013-02-02 22:41:00,29.0,24.5,30.12,SSE,150,1.0,1.0,83,0.00,,,0.00,WUHU216DAVISVP2,2013-02-03 04:41:00,
2013-02-02 22:46:00,29.3,24.8,30.12,South,173,0.0,1.0,83,0.00,,,0.00,WUHU216DAVISVP2,2013-02-03 04:46:00,
2013-02-02 22:51:00,29.5,25.0,30.12,South,173,0.0,1.0,83,0.00,,,0.00,WUHU216DAVISVP2,2013-02-03 04:51:00,
2013-02-02 22:56:00,29.6,25.1,30.13,South,173,0.0,0.0,83,0.00,,,0.00,WUHU216DAVISVP2,2013-02-03 04:56:00,
2013-02-02 23:00:00,29.6,25.1,30.13,South,173,0.0,0.0,83,0.00,,,0.00,WUHU216DAVISVP2,2013-02-03 05:00:00,
2013-02-02 23:01:00,29.6,25.1,30.13,South,173,0.0,0.0,83,0.00,,,0.00,WUHU216DAVISVP2,2013-02-03 05:01:00,
2013-02-02 23:06:00,29.6,24.8,30.13,South,173,0.0,0.0,82,0.00,,,0.00,WUHU216DAVISVP2,2013-02-03 05:06:00,
2013-02-02 23:11:00,29.7,24.9,30.12,South,173,0.0,0.0,82,0.00,,,0.00,WUHU216DAVISVP2,2013-02-03 05:11:00,
2013-02-02 23:16:00,29.8,25.0,30.12,South,172,0.0,0.0,82,0.00,,,0.00,WUHU216DAVISVP2,2013-02-03 05:16:00,
2013-02-02 23:21:00,29.9,25.1,30.12,South,172,0.0,0.0,82,0.00,,,0.00,WUHU216DAVISVP2,2013-02-03 05:21:00,
2013-02-02 23:26:00,29.9,25.4,30.12,South,172,0.0,0.0,83,0.00,,,0.00,WUHU216DAVISVP2,2013-02-03 05:26:00,
2013-02-02 23:31:00,29.9,25.6,30.12,South,171,0.0,0.0,84,0.00,,,0.00,WUHU216DAVISVP2,2013-02-03 05:31:00,
2013-02-02 23:36:00,29.9,25.4,30.13,NNW,334,0.0,0.0,83,0.00,,,0.00,WUHU216DAVISVP2,2013-02-03 05:36:00,
2013-02-02 23:41:00,29.9,25.6,30.12,ENE,63,0.0,0.0,84,0.00,,,0.00,WUHU216DAVISVP2,2013-02-03 05:41:00,
2013-02-02 23:46:00,29.8,25.5,30.12,ENE,63,0.0,0.0,84,0.00,,,0.00,WUHU216DAVISVP2,2013-02-03 05:46:00,
2013-02-02 23:51:00,29.7,25.5,30.12,ENE,63,0.0,0.0,84,0.00,,,0.00,WUHU216DAVISVP2,2013-02-03 05:51:00,
2013-02-02 23:57:00,29.6,25.9,30.11,ENE,65,0.0,0.0,86,0.00,,,0.00,WUHU216DAVISVP2,2013-02-03 05:57:00,